Flag for China Weather past 2 weeks in Chongqing, Chongqing Municipality, China

Now
79 °F

Passing clouds.


Feels Like: 80 °F
Forecast: 62 / 77 °F
Wind: 6 mph from Northeast

Location: Chongqing Airport

Current Time: Oct 22, 2014 at 5:13:36 PM

Latest Report: Oct 22, 2014 at 4:00 PM


Visibility: N/A

Pressure: 30.07 "Hg

Humidity: 48%

Dew point: 57 °F

Location of ChongqingLocation

Historic Weather in Chongqing — Graph

°F

Chongqing temperature yesterday

Maximum temperature yesterday: 75 °F (at 1:00 PM)
Minimum temperature yesterday: 61 °F (at 3:00 AM)
Average temperature yesterday: 67 °F

Past Weeks' High & Low Weather Summary

 TemperatureHumidityPressure
High82 °F (Oct 7, 3:00 PM)100% (Oct 17, 6:00 AM)30.36 "Hg (Oct 17, 6:00 AM)
Low57 °F (Oct 13, 4:00 PM)34% (Oct 7, 5:00 PM)29.83 "Hg (Oct 9, 5:00 PM)
Average66 °F74%30.09 "Hg
* Reported Oct 7 3:00 PM — Oct 22 3:00 PM, Chongqing, Weather by CustomWeather, © 2014

Note: Actual official high and low records may vary slightly from our data, if they occured in-between our weather recording intervals... More about our weather records

Advertising

Chongqing weather history for previous 24 hours

 ConditionsComfort  
Time TempWeatherWind HumidityBarometerVisibility
3:00 PM
Oct 22
79 °FPassing clouds.3 mph48%30.09 "HgN/A
2:00 PM77 °FPassing clouds.3 mph51%30.12 "HgN/A
1:00 PM75 °FSunny.3 mph54%30.15 "Hg10 mi
12:00 PM75 °FPassing clouds.6 mph54%30.18 "HgN/A
11:00 AM72 °FPassing clouds.3 mph61%30.21 "HgN/A
10:00 AM70 °FPassing clouds.6 mph64%30.21 "HgN/A
9:00 AM66 °FSunny.3 mph78%30.21 "Hg10 mi
8:00 AM63 °FSunny.8 mph83%30.18 "Hg10 mi
7:00 AM59 °FSunny.6 mph88%30.18 "Hg10 mi
6:00 AM59 °FClear.6 mph82%30.15 "Hg10 mi
5:00 AM59 °FClear.3 mph82%30.15 "Hg10 mi
4:00 AM61 °FClear.6 mph83%30.15 "Hg10 mi
3:00 AM61 °FClear.6 mph83%30.18 "Hg10 mi
2:00 AM61 °FClear.6 mph83%30.18 "Hg10 mi
1:00 AM63 °FClear.6 mph77%30.18 "Hg10 mi
12:00 AM63 °FClear.6 mph83%30.18 "Hg10 mi
11:00 PM
Oct 21
64 °FClear.8 mph78%30.18 "Hg10 mi
10:00 PM64 °FClear.6 mph73%30.18 "Hg10 mi
9:00 PM66 °FClear.8 mph78%30.18 "Hg10 mi
8:00 PM68 °FClear.1 mph73%30.15 "Hg10 mi
7:00 PM72 °FClear.1 mph61%30.15 "Hg10 mi
6:00 PM72 °FPassing clouds.3 mph61%30.15 "HgN/A
5:00 PM75 °FPassing clouds.1 mph54%30.15 "HgN/A
Weather by CustomWeather, © 2014

See weather overviewHow to use our weather pages